Location: Byszew
(52.1813°N, 19.2693°E)
Time: 19:11:30
(UTC+00:00)

Cosmos 1602 - Pass Details

Date: 03 March 2021
Orbit: 512 x 534 km, 82.5° (Epoch: 17 April)

Event Time Altitude Azimuth Distance (km) Brightness Sun altitude
Rises 17:05:48 0° 175° (S) 2,654 7.3 -6.9°
Reaches altitude 10° 17:07:57 10° 170° (S) 1,773 6.3 -7.2°
Maximum altitude 17:11:44 50° 95° (E) 684 3.9 -7.8°
Drops below altitude 10° 17:15:33 10° 20° (NNE) 1,798 6.2 -8.3°
Sets 17:17:46 0° 15° (NNE) 2,696 7.2 -8.7°
